Weather History for Bentonville, AR

Change the Weather History Date:

Thursday, February 27, 2014

  Actual Average Record
Temperature  
Mean Temperature 34 °F -  
Max Temperature 50 °F 54 °F 72 °F (1951)
Min Temperature 17 °F 30 °F 14 °F (1962)
Degree Days  
Heating Degree Days 32    
Moisture  
Dew Point 10 °F    
Average Humidity 40    
Maximum Humidity 63    
Minimum Humidity 22    
Precipitation  
Precipitation 0.00 in - - ()
Sea Level Pressure  
Sea Level Pressure 29.99 in    
Wind  
Wind Speed 4 mph (SSE)    
Max Wind Speed 9 mph    
Max Gust Speed -    
Visibility 10 miles    
Events      
Averages and records for this station are not official NWS values.
T = Trace of Precipitation, MM = Missing Value Source: NWS Daily Summary

Daily Weather History Graph

Daily Weather History Graph

Search for Another Location

Airport:

Trip Planner

Search our weather history database for the weather conditions in past years. The results will help you decide how hot, cold, wet, or windy it might be!

Date:

Astronomy

Feb. 27, 2014 Rise Set
Actual Time 6:49 AM CST 6:09 PM CST
Civil Twilight 6:24 AM CST 6:35 PM CST
Nautical Twilight 5:54 AM CST 7:05 PM CST
Astronomical Twilight 5:24 AM CST 7:35 PM CST
Moon 5:20 AM CST (2/27) 4:37 PM CST (2/27)
Length of Visible Light 12h 11m
Length of Day
11h 19m
Waning Crescent, 4% of the Moon is Illuminated
Feb 27
Waning Crescent
Mar 1
New
Mar 8
First Quarter
Mar 16
Full
Mar 23
Last Quarter

Hourly Weather History & Observations

Time (CST) Temp. Windchill Dew Point Humidity Pressure Visibility Wind Dir Wind Speed Gust Speed Precip Events Conditions
12:15 AM 19.4 °F 14.3 °F 3.2 °F 49% 30.06 in 10.0 mi SW 3.5 mph - N/A   Clear
12:35 AM 19.4 °F 14.3 °F 3.2 °F 49% 30.06 in 10.0 mi SSW 3.5 mph - N/A   Clear
12:55 AM 21.2 °F 14.9 °F 1.4 °F 42% 30.06 in 10.0 mi SSW 4.6 mph - N/A   Clear
1:15 AM 19.4 °F 12.8 °F 3.2 °F 49% 30.05 in 10.0 mi SSW 4.6 mph - N/A   Clear
1:35 AM 19.4 °F 11.5 °F 3.2 °F 49% 30.05 in 10.0 mi SSW 5.8 mph - N/A   Clear
1:55 AM 19.4 °F 11.5 °F 3.2 °F 49% 30.05 in 10.0 mi SSW 5.8 mph - N/A   Clear
2:15 AM 19.4 °F 14.3 °F 3.2 °F 49% 30.05 in 10.0 mi SSW 3.5 mph - N/A   Clear
2:35 AM 19.4 °F 12.8 °F 3.2 °F 49% 30.04 in 9.0 mi SSW 4.6 mph - N/A   Clear
2:55 AM 19.4 °F 12.8 °F 3.2 °F 49% 30.04 in 10.0 mi SSW 4.6 mph - N/A   Clear
3:15 AM 19.4 °F 12.8 °F 3.2 °F 49% 30.03 in 10.0 mi South 4.6 mph - N/A   Clear
3:35 AM 17.6 °F 10.7 °F 3.2 °F 53% 30.03 in 10.0 mi SSW 4.6 mph - N/A   Clear
3:55 AM 17.6 °F 10.7 °F 3.2 °F 53% 30.03 in 10.0 mi SSW 4.6 mph - N/A   Clear
4:15 AM 19.4 °F 12.8 °F 3.2 °F 49% 30.03 in 10.0 mi SSW 4.6 mph - N/A   Clear
4:35 AM 17.6 °F 10.7 °F 3.2 °F 53% 30.03 in 10.0 mi SSW 4.6 mph - N/A   Clear
4:55 AM 19.4 °F 12.8 °F 3.2 °F 49% 30.03 in 10.0 mi SSW 4.6 mph - N/A   Clear
5:15 AM 19.4 °F 11.5 °F 3.2 °F 49% 30.04 in 10.0 mi SSW 5.8 mph - N/A   Clear
5:35 AM 19.4 °F 11.5 °F 3.2 °F 49% 30.04 in 10.0 mi SSW 5.8 mph - N/A   Clear
5:55 AM 19.4 °F 11.5 °F 3.2 °F 49% 30.04 in 10.0 mi SSW 5.8 mph - N/A   Clear
6:15 AM 17.6 °F 9.3 °F 3.2 °F 53% 30.04 in 10.0 mi South 5.8 mph - N/A   Clear
6:35 AM 17.6 °F 10.7 °F 5.0 °F 58% 30.04 in 10.0 mi SSW 4.6 mph - N/A   Clear
6:55 AM 17.6 °F 12.3 °F 5.0 °F 58% 30.05 in 10.0 mi SSW 3.5 mph - N/A   Clear
7:15 AM 19.4 °F - 5.0 °F 54% 30.05 in 10.0 mi Calm Calm - N/A   Clear
7:35 AM 19.4 °F - 8.6 °F 63% 30.06 in 10.0 mi Calm Calm - N/A   Clear
7:55 AM 23.0 °F - 8.6 °F 54% 30.07 in 10.0 mi Calm Calm - N/A   Clear
8:15 AM 24.8 °F - 8.6 °F 50% 30.07 in 10.0 mi Calm Calm - N/A   Clear
8:35 AM 26.6 °F - 10.4 °F 51% 30.08 in 10.0 mi Calm Calm - N/A   Clear
8:55 AM 28.4 °F 24.6 °F 12.2 °F 51% 30.08 in 10.0 mi NNW 3.5 mph - N/A   Clear
9:15 AM 30.2 °F 22.6 °F 12.2 °F 47% 30.08 in 10.0 mi North 8.1 mph - N/A   Clear
9:35 AM 30.2 °F 21.9 °F 14.0 °F 51% 30.08 in 10.0 mi North 9.2 mph - N/A   Clear
9:55 AM 33.8 °F 28.6 °F 14.0 °F 44% 30.08 in 10.0 mi NE 5.8 mph - N/A   Clear
10:15 AM 33.8 °F 29.6 °F 14.0 °F 44% 30.08 in 10.0 mi ENE 4.6 mph - N/A   Clear
10:35 AM 35.6 °F 32.8 °F 12.2 °F 38% 30.07 in 10.0 mi NE 3.5 mph - N/A   Clear
10:55 AM 37.4 °F 33.8 °F 14.0 °F 38% 30.07 in 10.0 mi NNE 4.6 mph - N/A   Clear
11:15 AM 39.2 °F 35.0 °F 14.0 °F 36% 30.07 in 10.0 mi East 5.8 mph - N/A   Clear
11:35 AM 39.2 °F 35.9 °F 12.2 °F 33% 30.06 in 10.0 mi ESE 4.6 mph - N/A   Clear
11:55 AM 42.8 °F 41.1 °F 12.2 °F 29% 30.05 in 10.0 mi East 3.5 mph - N/A   Clear
12:15 PM 42.8 °F 40.1 °F 12.2 °F 29% 30.04 in 10.0 mi SE 4.6 mph - N/A   Clear
12:35 PM 42.8 °F 40.1 °F 10.4 °F 27% 30.03 in 10.0 mi SSW 4.6 mph - N/A   Clear
12:55 PM 44.6 °F - 12.2 °F 27% 30.02 in 3.0 mi Calm Calm - N/A   Clear
1:15 PM 44.6 °F 42.2 °F 10.4 °F 25% 30.01 in 10.0 mi South 4.6 mph - N/A   Clear
1:35 PM 44.6 °F 43.1 °F 10.4 °F 25% 30.00 in 10.0 mi NNW 3.5 mph - N/A   Clear
1:55 PM 46.4 °F 44.3 °F 10.4 °F 23% 29.98 in 10.0 mi East 4.6 mph - N/A   Clear
2:15 PM 46.4 °F 45.2 °F 10.4 °F 23% 29.97 in 10.0 mi SSE 3.5 mph - N/A   Clear
2:35 PM 46.4 °F - 10.4 °F 23% 29.97 in 10.0 mi Calm Calm - N/A   Clear
2:55 PM 48.2 °F - 12.2 °F 24% 29.95 in 10.0 mi ESE 6.9 mph - N/A   Clear
3:15 PM 48.2 °F - 12.2 °F 24% 29.94 in 10.0 mi SE 4.6 mph - N/A   Clear
3:35 PM 48.2 °F - 14.0 °F 25% 29.94 in 10.0 mi SSE 5.8 mph - N/A   Clear
3:55 PM 48.2 °F - 15.8 °F 27% 29.93 in 10.0 mi SSW 5.8 mph - N/A   Clear
4:15 PM 48.2 °F - 14.0 °F 25% 29.92 in 10.0 mi SSE 3.5 mph - N/A   Clear
4:35 PM 50.0 °F - 12.2 °F 22% 29.91 in 10.0 mi South 6.9 mph - N/A   Clear
4:55 PM 48.2 °F - 12.2 °F 24% 29.90 in 10.0 mi SW 5.8 mph - N/A   Clear
5:15 PM 48.2 °F - 14.0 °F 25% 29.90 in 10.0 mi WSW 5.8 mph - N/A   Clear
5:35 PM 48.2 °F - 12.2 °F 24% 29.89 in 10.0 mi SW 4.6 mph - N/A   Clear
5:55 PM 46.4 °F - 12.2 °F 25% 29.89 in 10.0 mi Calm Calm - N/A   Clear
6:15 PM 46.4 °F - 14.0 °F 27% 29.89 in 10.0 mi Calm Calm - N/A   Clear
6:35 PM 44.6 °F 42.2 °F 14.0 °F 29% 29.90 in 10.0 mi SSE 4.6 mph - N/A   Clear
6:55 PM 42.8 °F 40.1 °F 14.0 °F 31% 29.90 in 10.0 mi South 4.6 mph - N/A   Clear
7:15 PM 42.8 °F 39.3 °F 15.8 °F 34% 29.90 in 10.0 mi South 5.8 mph - N/A   Clear
7:35 PM 42.8 °F 39.3 °F 15.8 °F 34% 29.90 in 10.0 mi SSE 5.8 mph - N/A   Clear
7:55 PM 39.2 °F 35.0 °F 15.8 °F 39% 29.91 in 10.0 mi SE 5.8 mph - N/A   Clear
8:15 PM 41.0 °F 39.0 °F 15.8 °F 36% 29.90 in 10.0 mi East 3.5 mph - N/A   Clear
8:35 PM 39.2 °F 37.0 °F 15.8 °F 39% 29.91 in 10.0 mi East 3.5 mph - N/A   Clear
8:55 PM 39.2 °F 35.9 °F 14.0 °F 36% 29.90 in 10.0 mi East 4.6 mph - N/A   Clear
9:15 PM 37.4 °F 32.8 °F 15.8 °F 41% 29.90 in 10.0 mi ESE 5.8 mph - N/A   Clear
9:35 PM 37.4 °F 32.1 °F 15.8 °F 41% 29.90 in 10.0 mi ESE 6.9 mph - N/A   Clear
9:55 PM 33.8 °F 27.7 °F 15.8 °F 48% 29.90 in 10.0 mi SE 6.9 mph - N/A   Clear
10:15 PM 33.8 °F 27.0 °F 17.6 °F 52% 29.90 in 10.0 mi SE 8.1 mph - N/A   Clear
10:35 PM 35.6 °F 31.7 °F 15.8 °F 44% 29.89 in 10.0 mi ESE 4.6 mph - N/A   Clear
10:55 PM 35.6 °F 30.7 °F 15.8 °F 44% 29.89 in 10.0 mi ESE 5.8 mph - N/A   Clear
11:15 PM 35.6 °F 29.9 °F 15.8 °F 44% 29.89 in 10.0 mi ESE 6.9 mph - N/A   Clear
11:35 PM 35.6 °F 29.2 °F 15.8 °F 44% 29.88 in 10.0 mi SE 8.1 mph - N/A   Clear
11:55 PM 33.8 °F 27.0 °F 15.8 °F 48% 29.88 in 10.0 mi SE 8.1 mph - N/A   Clear